sat.trackr.live / text

‹ back to catalog

ONEWEB-0393

NORAD 50473 · 2021-132E

PAYLOAD ACTIVE UNKNOWN

§ Identity

Operator
Country
UK
Launch date
2021-12-27
Launch site
TYMSC
Launch vehicle
Mass (kg)
RCS (m²)

Purposes: comms

External: N2YO · Heavens-Above · Gunter

§ Orbital elements

Epoch: 2026-09-19T23:25:55.327584Z

Period
109.29 min
Inclination
87.9198°
Eccentricity
0.0001973
Mean motion
13.17647431 rev/d
Perigee alt
1,192.2 km
Apogee alt
1,195.2 km
Semi-major
7,571.9 km
B*
8.8030e-6
RAAN
347.0411°
Arg perigee
104.5731°
Mean anomaly
255.5619°
Rev number
23,059

§ Raw data

ONEWEB-03931 50473U 21132E   26262.97633481  .00000016  00000+0  88030-5 0  99972 50473  87.9198 347.0411 0001973 104.5731 255.5619 13.17647431230593

JSON: /api/v1/satellites/50473 · /tle

For live sub-satellite position, see the globe view (requires WebGL).

§ Visibility from observer

Set your observer location to see the next 7 days of passes ≥ 10°. The values pass through the URL so the page stays shareable.

No JS? Fill the form by hand. The geolocation button needs JavaScript.